sat.trackr.live / text

‹ back to catalog

STARLINK-36121

NORAD 66940 · 2025-286R

PAYLOAD ACTIVE UNKNOWN

§ Identity

Operator
Country
US
Launch date
2025-12-07
Launch site
AFWTR
Launch vehicle
Mass (kg)
RCS (m²)

Purposes: comms

External: N2YO · Heavens-Above · Gunter

§ Orbital elements

Epoch: 2026-05-24T23:46:45.323904Z

Period
93.85 min
Inclination
53.1614°
Eccentricity
0.0001064
Mean motion
15.34403202 rev/d
Perigee alt
462.0 km
Apogee alt
463.4 km
Semi-major
6,840.8 km
B*
6.8690e-4
RAAN
3.6956°
Arg perigee
86.4541°
Mean anomaly
273.6583°
Rev number
2,710

§ Raw data

STARLINK-361211 66940U 25286R   26144.99080236  .00022905  00000+0  68690-3 0  99912 66940  53.1614   3.6956 0001064  86.4541 273.6583 15.34403202 27103

JSON: /api/v1/satellites/66940 · /tle

For live sub-satellite position, see the globe view (requires WebGL).

§ Visibility from observer

Set your observer location to see the next 7 days of passes ≥ 10°. The values pass through the URL so the page stays shareable.

No JS? Fill the form by hand. The geolocation button needs JavaScript.